sat.trackr.live / text

‹ back to catalog

STARLINK-32568

NORAD 62128 · 2024-222Q

PAYLOAD ACTIVE UNKNOWN

§ Identity

Operator
Country
US
Launch date
2024-11-27
Launch site
AFETR
Launch vehicle
Mass (kg)
RCS (m²)

Purposes: comms

External: N2YO · Heavens-Above · Gunter

§ Orbital elements

Epoch: 2026-05-25T04:03:34.189344Z

Period
94.26 min
Inclination
43.0044°
Eccentricity
0.0001805
Mean motion
15.27611142 rev/d
Perigee alt
481.7 km
Apogee alt
484.2 km
Semi-major
6,861.1 km
B*
9.7626e-4
RAAN
64.4273°
Arg perigee
281.0985°
Mean anomaly
78.9664°
Rev number
8,418

§ Raw data

STARLINK-325681 62128U 24222Q   26145.16914571  .00026726  00000+0  97626-3 0  99982 62128  43.0044  64.4273 0001805 281.0985  78.9664 15.27611142 84180

JSON: /api/v1/satellites/62128 · /tle

For live sub-satellite position, see the globe view (requires WebGL).

§ Visibility from observer

Set your observer location to see the next 7 days of passes ≥ 10°. The values pass through the URL so the page stays shareable.

No JS? Fill the form by hand. The geolocation button needs JavaScript.